TimeCDT,TemperatureF,Dew PointF,Humidity,Sea Level PressureIn,VisibilityMPH,Wind Direction,Wind SpeedMPH,Gust SpeedMPH,PrecipitationIn,Events,Conditions,WindDirDegrees,DateUTC
12:52 AM,68.0,64.0,87,29.96,10.0,NW,4.6,-,0.00,,Overcast,320,2013-08-03 05:52:00
1:52 AM,66.9,63.0,87,29.96,10.0,NW,3.5,-,N/A,,Mostly Cloudy,320,2013-08-03 06:52:00
2:52 AM,66.0,62.1,87,29.98,10.0,NNW,5.8,-,N/A,,Overcast,330,2013-08-03 07:52:00
3:52 AM,64.9,61.0,87,29.98,10.0,NNW,4.6,-,N/A,,Overcast,330,2013-08-03 08:52:00
4:52 AM,62.1,57.9,86,29.98,10.0,North,5.8,-,N/A,,Clear,350,2013-08-03 09:52:00
5:52 AM,60.1,55.9,86,30.00,10.0,Calm,Calm,-,N/A,,Clear,0,2013-08-03 10:52:00
6:52 AM,63.0,55.9,78,30.01,10.0,North,5.8,-,N/A,,Clear,10,2013-08-03 11:52:00
7:52 AM,66.9,57.0,70,30.02,10.0,NNE,10.4,-,N/A,,Clear,30,2013-08-03 12:52:00
8:52 AM,71.1,57.0,61,30.04,10.0,NNE,9.2,-,N/A,,Clear,30,2013-08-03 13:52:00
9:52 AM,73.9,55.0,52,30.04,10.0,NNE,9.2,-,N/A,,Clear,30,2013-08-03 14:52:00
10:52 AM,75.9,54.0,46,30.06,10.0,NNE,11.5,-,N/A,,Clear,20,2013-08-03 15:52:00
11:52 AM,77.0,53.1,43,30.07,10.0,North,6.9,-,N/A,,Clear,360,2013-08-03 16:52:00
12:52 PM,78.1,51.1,39,30.06,10.0,North,10.4,-,N/A,,Partly Cloudy,350,2013-08-03 17:52:00
1:52 PM,77.0,52.0,42,30.08,10.0,NW,11.5,17.3,N/A,,Partly Cloudy,320,2013-08-03 18:52:00
2:52 PM,78.1,50.0,37,30.09,10.0,NNW,12.7,17.3,N/A,,Partly Cloudy,340,2013-08-03 19:52:00
3:52 PM,78.1,52.0,40,30.08,10.0,NW,8.1,17.3,N/A,,Partly Cloudy,320,2013-08-03 20:52:00
4:52 PM,78.1,51.1,39,30.08,10.0,North,13.8,-,N/A,,Partly Cloudy,350,2013-08-03 21:52:00
5:52 PM,75.9,53.1,45,30.07,10.0,NNW,9.2,-,N/A,,Partly Cloudy,340,2013-08-03 22:52:00
6:52 PM,73.0,60.1,64,30.08,10.0,NNW,3.5,-,N/A,,Clear,340,2013-08-03 23:52:00
7:52 PM,69.1,57.9,68,30.08,10.0,Calm,Calm,-,N/A,,Clear,0,2013-08-04 00:52:00
8:52 PM,64.0,59.0,84,30.09,10.0,NNW,3.5,-,N/A,,Scattered Clouds,340,2013-08-04 01:52:00
9:52 PM,62.1,57.9,86,30.11,10.0,Calm,Calm,-,N/A,,Clear,0,2013-08-04 02:52:00
10:52 PM,62.1,57.9,86,30.12,10.0,Calm,Calm,-,N/A,,Mostly Cloudy,0,2013-08-04 03:52:00
11:52 PM,59.0,55.9,90,30.12,10.0,Calm,Calm,-,N/A,,Partly Cloudy,0,2013-08-04 04:52:00